EJU38UD LEPA-EGHI

Flight info

Callsign EJU38UD
Flight time 1h 51m
Altitude 34000
Route DRAGO DCT PAPOS DCT UMURE DCT XIKEN DCT KARES DCT ARBEK DCT REBUL DCT USKAR DCT MOPAS DCT GIROM DCT AGN DCT SECHE DCT UVELI DCT CNA DCT MANAK UY110 ORIST Y110 THRED
Aircraft A319/M-SDE2E3FGIJ1RWXYZ/LB1

Departure

Time 2026-05-09 15:55
Airport Palma de Mallorca Airport (LEPA)

Arrival

Time 2026-05-09 17:46
Airport Southampton Airport (EGHI)
Time Latitude Longitude Altitude Speed Heading
2026-05-09 15:06 39.55127 2.72973 39 ft 0 kts 162°
2026-05-09 15:40 39.55137 2.72969 38 ft 4 kts 162°
2026-05-09 15:40 39.55162 2.72958 37 ft 3 kts 161°
2026-05-09 15:40 39.55182 2.72946 33 ft 4 kts 134°
2026-05-09 15:40 39.55190 2.72920 38 ft 4 kts 73°
2026-05-09 15:41 39.55180 2.72890 36 ft 4 kts 59°
2026-05-09 15:41 39.55173 2.72875 38 ft 0 kts 59°
2026-05-09 15:44 39.55176 2.72883 37 ft 4 kts 58°
2026-05-09 15:45 39.55207 2.72948 36 ft 12 kts 58°
2026-05-09 15:45 39.55263 2.73064 38 ft 18 kts 57°
2026-05-09 15:45 39.55335 2.73215 38 ft 21 kts 59°
2026-05-09 15:45 39.55413 2.73380 38 ft 22 kts 58°
2026-05-09 15:46 39.55490 2.73545 36 ft 16 kts 59°
2026-05-09 15:46 39.55488 2.73602 38 ft 6 kts 156°
2026-05-09 15:46 39.55433 2.73647 37 ft 13 kts 148°
2026-05-09 15:46 39.55338 2.73722 38 ft 19 kts 149°
2026-05-09 15:47 39.55207 2.73826 38 ft 26 kts 148°
2026-05-09 15:47 39.55043 2.73955 38 ft 28 kts 148°
2026-05-09 15:47 39.54884 2.74080 38 ft 21 kts 149°
2026-05-09 15:47 39.54795 2.74127 38 ft 11 kts 216°
2026-05-09 15:48 39.54741 2.74022 37 ft 17 kts 239°
2026-05-09 15:48 39.54703 2.73944 38 ft 12 kts 238°
2026-05-09 15:48 39.54692 2.73922 38 ft 2 kts 238°
2026-05-09 15:48 39.54671 2.73878 36 ft 7 kts 238°
2026-05-09 15:49 39.54629 2.73790 38 ft 17 kts 238°
2026-05-09 15:49 39.54549 2.73620 38 ft 25 kts 238°
2026-05-09 15:49 39.54456 2.73422 36 ft 27 kts 239°
2026-05-09 15:49 39.54393 2.73289 38 ft 23 kts 238°
2026-05-09 15:50 39.54328 2.73154 38 ft 9 kts 229°
2026-05-09 15:50 39.54303 2.73161 38 ft 0 kts 145°
2026-05-09 15:51 39.54302 2.73162 38 ft 1 kts 145°
2026-05-09 15:51 39.54287 2.73178 38 ft 5 kts 137°
2026-05-09 15:51 39.54271 2.73215 38 ft 0 kts 105°
2026-05-09 15:51 39.54269 2.73231 38 ft 0 kts 96°
2026-05-09 15:52 39.54269 2.73233 38 ft 1 kts 96°
2026-05-09 15:52 39.54268 2.73277 38 ft 9 kts 90°
2026-05-09 15:52 39.54268 2.73393 38 ft 15 kts 90°
2026-05-09 15:53 39.54282 2.73500 37 ft 11 kts 59°
2026-05-09 15:53 39.54289 2.73512 38 ft 0 kts 57°
2026-05-09 15:54 39.54293 2.73521 37 ft 5 kts 57°
2026-05-09 15:54 39.54446 2.73844 38 ft 79 kts 58°
2026-05-09 15:54 39.54843 2.74681 39 ft 137 kts 58°
2026-05-09 15:54 39.55372 2.75795 529 ft 145 kts 56°
2026-05-09 15:55 39.55896 2.76939 1094 ft 152 kts 57°
2026-05-09 15:55 39.56451 2.78134 1705 ft 156 kts 59°
2026-05-09 15:55 39.57064 2.79385 2133 ft 174 kts 58°
2026-05-09 15:55 39.57746 2.80796 2504 ft 195 kts 59°
2026-05-09 15:56 39.58490 2.82412 2858 ft 219 kts 60°
2026-05-09 15:56 39.59280 2.84150 3567 ft 228 kts 60°
2026-05-09 15:56 39.60095 2.85936 4379 ft 233 kts 59°
2026-05-09 15:56 39.60933 2.87785 5095 ft 241 kts 59°
2026-05-09 15:57 39.61882 2.89589 5875 ft 243 kts 42°
2026-05-09 15:57 39.63352 2.90588 6584 ft 241 kts
2026-05-09 15:57 39.64980 2.90387 7269 ft 236 kts 333°
2026-05-09 15:57 39.66267 2.89159 8040 ft 230 kts 304°
2026-05-09 15:58 39.66952 2.87310 8772 ft 228 kts 287°
2026-05-09 15:58 39.67456 2.85351 9578 ft 230 kts 283°
2026-05-09 15:58 39.67867 2.83336 10305 ft 232 kts 280°
2026-05-09 15:58 39.68200 2.81302 10996 ft 235 kts 276°
2026-05-09 15:59 39.68429 2.79193 11711 ft 238 kts 271°
2026-05-09 15:59 39.68548 2.77039 12420 ft 241 kts 269°
2026-05-09 15:59 39.68778 2.74851 13107 ft 249 kts 276°
2026-05-09 15:59 39.69260 2.72581 13476 ft 274 kts 284°
2026-05-09 16:00 39.70029 2.70190 13744 ft 298 kts 287°
2026-05-09 16:00 39.70584 2.68476 13922 ft 312 kts 287°
2026-05-09 16:00 39.71787 2.64883 14197 ft 340 kts 289°
2026-05-09 16:00 39.72768 2.62042 14758 ft 348 kts 290°
2026-05-09 16:01 39.73769 2.59165 15396 ft 352 kts 290°
2026-05-09 16:01 39.74777 2.56258 16061 ft 354 kts 290°
2026-05-09 16:01 39.75789 2.53323 16727 ft 357 kts 290°
2026-05-09 16:01 39.76802 2.50360 17393 ft 360 kts 289°
2026-05-09 16:02 39.77816 2.47367 18071 ft 363 kts 289°
2026-05-09 16:02 39.79857 2.41285 19308 ft 371 kts 290°
2026-05-09 16:02 39.80891 2.38190 19893 ft 375 kts 290°
2026-05-09 16:03 39.81936 2.35060 20460 ft 379 kts 290°
2026-05-09 16:03 39.82997 2.31892 20987 ft 383 kts 290°
2026-05-09 16:03 39.84055 2.28694 21534 ft 387 kts 290°
2026-05-09 16:03 39.85111 2.25446 22017 ft 392 kts 289°
2026-05-09 16:04 39.86170 2.22158 22523 ft 396 kts 289°
2026-05-09 16:04 39.87238 2.18831 23030 ft 400 kts 289°
2026-05-09 16:04 39.88315 2.15469 23515 ft 404 kts 289°
2026-05-09 16:04 39.89391 2.12119 23789 ft 407 kts 290°
2026-05-09 16:05 39.90487 2.08719 23867 ft 407 kts 288°
2026-05-09 16:05 39.91590 2.05316 23864 ft 409 kts 290°
2026-05-09 16:05 39.92697 2.01899 23869 ft 409 kts 289°
2026-05-09 16:05 39.93816 1.98414 24296 ft 414 kts 290°
2026-05-09 16:06 39.94912 1.94984 25078 ft 417 kts 290°
2026-05-09 16:06 39.96025 1.91493 25683 ft 418 kts 290°
2026-05-09 16:06 39.97142 1.87982 26045 ft 421 kts 290°
2026-05-09 16:06 39.98275 1.84444 26452 ft 424 kts 292°
2026-05-09 16:07 39.99700 1.81068 26833 ft 428 kts 303°
2026-05-09 16:07 40.01610 1.78062 27180 ft 432 kts 315°
2026-05-09 16:07 40.03933 1.75534 27438 ft 438 kts 326°
2026-05-09 16:07 40.06609 1.73609 27768 ft 441 kts 337°
2026-05-09 16:08 40.09460 1.72126 28123 ft 444 kts 339°
2026-05-09 16:08 40.12343 1.70650 28626 ft 447 kts 340°
2026-05-09 16:08 40.15241 1.69168 29179 ft 448 kts 340°
2026-05-09 16:08 40.18150 1.67677 29593 ft 450 kts 340°
2026-05-09 16:09 40.21073 1.66178 30015 ft 452 kts 340°
2026-05-09 16:09 40.24006 1.64668 30306 ft 455 kts 340°
2026-05-09 16:09 40.26958 1.63145 30623 ft 456 kts 340°
2026-05-09 16:09 40.29912 1.61618 30909 ft 457 kts 340°
2026-05-09 16:10 40.32880 1.60082 31161 ft 460 kts 340°
2026-05-09 16:10 40.35865 1.58536 31409 ft 463 kts 340°
2026-05-09 16:10 40.38859 1.56984 31772 ft 462 kts 340°
2026-05-09 16:10 40.41847 1.55438 32159 ft 461 kts 340°
2026-05-09 16:11 40.44836 1.53893 32528 ft 461 kts 340°
2026-05-09 16:11 40.47820 1.52348 32912 ft 462 kts 340°
2026-05-09 16:11 40.50827 1.50789 33081 ft 467 kts 340°
2026-05-09 16:11 40.53860 1.49213 33366 ft 469 kts 340°
2026-05-09 16:12 40.56895 1.47632 33758 ft 469 kts 340°
2026-05-09 16:12 40.59927 1.46048 34141 ft 469 kts 339°
2026-05-09 16:12 40.62956 1.44465 34544 ft 467 kts 339°
2026-05-09 16:12 40.65978 1.42889 34888 ft 467 kts 338°
2026-05-09 16:13 40.68999 1.41312 35187 ft 467 kts 338°
2026-05-09 16:13 40.72017 1.39736 35475 ft 467 kts 338°
2026-05-09 16:13 40.75033 1.38157 35767 ft 466 kts 338°
2026-05-09 16:13 40.78050 1.36576 35900 ft 466 kts 337°
2026-05-09 16:14 40.83975 1.33477 35922 ft 459 kts 337°
2026-05-09 16:14 40.89900 1.30365 35940 ft 458 kts 337°
2026-05-09 16:15 40.95832 1.27234 35953 ft 460 kts 336°
2026-05-09 16:15 41.01774 1.24095 35966 ft 460 kts 336°
2026-05-09 16:16 41.07718 1.20952 35976 ft 460 kts 336°
2026-05-09 16:16 41.13701 1.17896 35968 ft 461 kts 342°
2026-05-09 16:17 41.20040 1.16606 35964 ft 463 kts 355°
2026-05-09 16:17 41.26464 1.15951 35959 ft 463 kts 355°
2026-05-09 16:18 41.32893 1.15243 35950 ft 464 kts 355°
2026-05-09 16:18 41.39342 1.14548 35967 ft 465 kts 355°
2026-05-09 16:19 41.45817 1.13875 35936 ft 467 kts 355°
2026-05-09 16:19 41.52314 1.13193 35924 ft 469 kts 354°
2026-05-09 16:20 41.58825 1.12498 35922 ft 470 kts 354°
2026-05-09 16:20 41.65357 1.11807 35916 ft 472 kts 354°
2026-05-09 16:21 41.71907 1.11118 35911 ft 473 kts 354°
2026-05-09 16:21 41.78429 1.10423 35917 ft 473 kts 354°
2026-05-09 16:22 41.85011 1.09724 35898 ft 475 kts 354°
2026-05-09 16:22 41.91604 1.09021 35892 ft 476 kts 354°
2026-05-09 16:23 41.98215 1.08315 35892 ft 476 kts 354°
2026-05-09 16:23 42.04823 1.07604 35895 ft 476 kts 354°
2026-05-09 16:24 42.11432 1.06893 35905 ft 477 kts 354°
2026-05-09 16:24 42.18047 1.06184 35918 ft 477 kts 354°
2026-05-09 16:25 42.23545 1.05590 35953 ft 477 kts 354°
2026-05-09 16:25 42.31232 1.04758 35954 ft 477 kts 354°
2026-05-09 16:26 42.37848 1.04047 35953 ft 477 kts 354°
2026-05-09 16:26 42.44464 1.03339 35951 ft 477 kts 354°
2026-05-09 16:27 42.51080 1.02617 35937 ft 477 kts 354°
2026-05-09 16:27 42.57697 1.01887 35925 ft 477 kts 354°
2026-05-09 16:28 42.64316 1.01160 35918 ft 477 kts 354°
2026-05-09 16:28 42.70933 1.00445 35912 ft 477 kts 354°
2026-05-09 16:29 42.77552 0.99721 35902 ft 477 kts 353°
2026-05-09 16:29 42.84170 0.98984 35901 ft 477 kts 353°
2026-05-09 16:30 42.90783 0.98263 35889 ft 477 kts 354°
2026-05-09 16:30 42.97398 0.97544 35897 ft 477 kts 354°
2026-05-09 16:31 43.04005 0.96805 35894 ft 476 kts 354°
2026-05-09 16:31 43.10609 0.96071 35890 ft 476 kts 354°
2026-05-09 16:32 43.16094 0.95458 35889 ft 475 kts 354°
2026-05-09 16:32 43.23791 0.94599 35885 ft 475 kts 354°
2026-05-09 16:33 43.30376 0.93866 35877 ft 474 kts 354°
2026-05-09 16:33 43.36915 0.93137 35875 ft 474 kts 353°
2026-05-09 16:34 43.43493 0.92397 35887 ft 475 kts 353°
2026-05-09 16:34 43.50074 0.91665 35874 ft 474 kts 353°
2026-05-09 16:35 43.55584 0.91046 35864 ft 474 kts 353°
2026-05-09 16:35 43.62159 0.90295 35867 ft 474 kts 353°
2026-05-09 16:36 43.75278 0.88817 35869 ft 474 kts 353°
2026-05-09 16:37 43.81861 0.88078 35872 ft 475 kts 353°
2026-05-09 16:37 43.88392 0.86927 35880 ft 471 kts 342°
2026-05-09 16:38 43.94437 0.83660 35881 ft 465 kts 331°
2026-05-09 16:38 44.00308 0.79872 35868 ft 465 kts 331°
2026-05-09 16:39 44.06178 0.76083 35892 ft 465 kts 331°
2026-05-09 16:39 44.12054 0.72283 35869 ft 466 kts 331°
2026-05-09 16:40 44.17932 0.68468 35865 ft 466 kts 331°
2026-05-09 16:42 44.41412 0.53137 35863 ft 466 kts 330°
2026-05-09 16:42 44.47234 0.49310 35871 ft 465 kts 330°
2026-05-09 16:43 44.53086 0.45432 35867 ft 465 kts 330°
2026-05-09 16:43 44.58924 0.41538 35865 ft 465 kts 330°
2026-05-09 16:44 44.64771 0.37643 35896 ft 465 kts 330°
2026-05-09 16:44 44.70612 0.33748 35878 ft 465 kts 330°
2026-05-09 16:45 44.76451 0.29844 35867 ft 465 kts 330°
2026-05-09 16:45 44.82287 0.25930 35862 ft 465 kts 330°
2026-05-09 16:46 44.88133 0.22007 35862 ft 465 kts 330°
2026-05-09 16:46 44.93977 0.18074 35862 ft 465 kts 330°
2026-05-09 16:47 44.99811 0.14138 35868 ft 465 kts 330°
2026-05-09 16:47 45.05642 0.10188 35869 ft 464 kts 330°
2026-05-09 16:48 45.11425 0.06259 35864 ft 464 kts 330°
2026-05-09 16:48 45.17249 0.02303 35868 ft 464 kts 330°
2026-05-09 16:49 45.23066 -0.01657 35882 ft 464 kts 329°
2026-05-09 16:50 45.31808 -0.07621 35857 ft 465 kts 330°
2026-05-09 16:50 45.37647 -0.11616 35852 ft 465 kts 329°
2026-05-09 16:51 45.43468 -0.15620 35855 ft 465 kts 329°
2026-05-09 16:51 45.49295 -0.19638 35855 ft 465 kts 329°
2026-05-09 16:52 45.55120 -0.23660 35855 ft 465 kts 329°
2026-05-09 16:52 45.60947 -0.27696 35852 ft 465 kts 329°
2026-05-09 16:53 45.66637 -0.32007 35846 ft 459 kts 320°
2026-05-09 16:53 45.71650 -0.37552 35855 ft 455 kts 316°
2026-05-09 16:54 45.76600 -0.43141 35858 ft 456 kts 316°
2026-05-09 16:54 45.81578 -0.48757 35859 ft 455 kts 316°
2026-05-09 16:55 45.86548 -0.54386 35863 ft 455 kts 316°
2026-05-09 16:55 45.91513 -0.60032 35865 ft 455 kts 315°
2026-05-09 16:56 45.96470 -0.65679 35858 ft 455 kts 315°
2026-05-09 16:56 46.01430 -0.71333 35873 ft 455 kts 315°
2026-05-09 16:57 46.06379 -0.76996 35872 ft 454 kts 315°
2026-05-09 16:57 46.11320 -0.82668 35881 ft 454 kts 315°
2026-05-09 16:58 46.16259 -0.88348 35873 ft 454 kts 315°
2026-05-09 16:58 46.21190 -0.94036 35869 ft 454 kts 315°
2026-05-09 16:59 46.26119 -0.99723 35865 ft 453 kts 315°
2026-05-09 16:59 46.31045 -1.05417 35858 ft 453 kts 315°
2026-05-09 17:00 46.35967 -1.11116 35856 ft 453 kts 315°
2026-05-09 17:00 46.40878 -1.16828 35872 ft 452 kts 315°
2026-05-09 17:01 46.45777 -1.22550 35895 ft 452 kts 315°
2026-05-09 17:01 46.50678 -1.28276 35884 ft 452 kts 315°
2026-05-09 17:02 46.55578 -1.34003 35881 ft 452 kts 315°
2026-05-09 17:02 46.60629 -1.39502 35889 ft 458 kts 324°
2026-05-09 17:03 46.66327 -1.43656 35888 ft 462 kts 329°
2026-05-09 17:04 46.86677 -1.57590 35875 ft 467 kts 340°
2026-05-09 17:05 46.89871 -1.58576 35875 ft 472 kts 349°
2026-05-09 17:05 46.96449 -1.59283 35875 ft 474 kts 353°
2026-05-09 17:06 47.03023 -1.59949 35877 ft 474 kts 353°
2026-05-09 17:06 47.09599 -1.60628 35880 ft 474 kts 353°
2026-05-09 17:07 47.16174 -1.61310 35908 ft 474 kts 352°
2026-05-09 17:07 47.22734 -1.62116 35916 ft 473 kts 351°
2026-05-09 17:08 47.29275 -1.63051 35910 ft 472 kts 351°
2026-05-09 17:08 47.39076 -1.64433 35914 ft 472 kts 351°
2026-05-09 17:09 47.45606 -1.65354 35911 ft 471 kts 351°
2026-05-09 17:09 47.52080 -1.66281 35907 ft 470 kts 351°
2026-05-09 17:10 47.58593 -1.67204 35910 ft 470 kts 351°
2026-05-09 17:10 47.65097 -1.68130 35925 ft 469 kts 351°
2026-05-09 17:11 47.71588 -1.69062 35921 ft 469 kts 351°
2026-05-09 17:11 47.78086 -1.69997 35915 ft 468 kts 351°
2026-05-09 17:12 47.84574 -1.70937 35924 ft 468 kts 351°
2026-05-09 17:12 47.91064 -1.71876 35919 ft 468 kts 351°
2026-05-09 17:13 47.97551 -1.72796 35917 ft 468 kts 351°
2026-05-09 17:13 48.04034 -1.73748 35918 ft 468 kts 351°
2026-05-09 17:14 48.10557 -1.74228 35910 ft 471 kts 356°
2026-05-09 17:14 48.17111 -1.74292 35909 ft 471 kts 356°
2026-05-09 17:15 48.23672 -1.74369 35919 ft 472 kts 356°
2026-05-09 17:15 48.30249 -1.74452 35915 ft 473 kts 356°
2026-05-09 17:17 48.56661 -1.74771 35929 ft 477 kts 356°
2026-05-09 17:18 48.63313 -1.74848 35840 ft 480 kts 356°
2026-05-09 17:18 48.66649 -1.74889 35593 ft 479 kts 355°
2026-05-09 17:18 48.69985 -1.74930 35340 ft 480 kts 355°
2026-05-09 17:19 48.73327 -1.74976 35098 ft 481 kts 355°
2026-05-09 17:19 48.76675 -1.75023 34853 ft 481 kts 355°
2026-05-09 17:19 48.80024 -1.75070 34610 ft 481 kts 354°
2026-05-09 17:19 48.83365 -1.75115 34235 ft 478 kts 354°
2026-05-09 17:20 48.86696 -1.75157 33610 ft 479 kts 354°
2026-05-09 17:20 48.90016 -1.75196 33084 ft 476 kts 354°
2026-05-09 17:20 48.93313 -1.75202 32567 ft 472 kts 355°
2026-05-09 17:20 48.95484 -1.75156 32228 ft 470 kts 356°
2026-05-09 17:21 48.98741 -1.75030 31713 ft 467 kts 356°
2026-05-09 17:21 49.01984 -1.74868 31207 ft 464 kts 357°
2026-05-09 17:21 49.05203 -1.74699 30713 ft 461 kts 357°
2026-05-09 17:21 49.08394 -1.74541 30247 ft 457 kts 357°
2026-05-09 17:22 49.11567 -1.74396 29718 ft 453 kts 357°
2026-05-09 17:22 49.14702 -1.74266 29252 ft 448 kts 357°
2026-05-09 17:22 49.17796 -1.74148 28810 ft 442 kts 357°
2026-05-09 17:22 49.20857 -1.74041 28363 ft 437 kts 357°
2026-05-09 17:23 49.23880 -1.73940 27926 ft 433 kts 357°
2026-05-09 17:23 49.26879 -1.73836 27485 ft 429 kts 358°
2026-05-09 17:23 49.29849 -1.73726 27040 ft 425 kts 358°
2026-05-09 17:23 49.32798 -1.73610 26588 ft 423 kts 358°
2026-05-09 17:25 49.47312 -1.73050 24263 ft 415 kts 359°
2026-05-09 17:25 49.50181 -1.72940 23807 ft 412 kts 360°
2026-05-09 17:25 49.53032 -1.72827 23502 ft 406 kts
2026-05-09 17:25 49.55883 -1.72714 22993 ft 403 kts
2026-05-09 17:26 49.58638 -1.72618 22516 ft 400 kts 358°
2026-05-09 17:26 49.61372 -1.73025 21905 ft 391 kts 347°
2026-05-09 17:26 49.64024 -1.73807 21326 ft 382 kts 347°
2026-05-09 17:26 49.66591 -1.74569 20894 ft 370 kts 347°
2026-05-09 17:27 49.69076 -1.75307 20472 ft 358 kts 347°
2026-05-09 17:27 49.71487 -1.76021 20068 ft 348 kts 347°
2026-05-09 17:27 49.73833 -1.76714 19674 ft 338 kts 347°
2026-05-09 17:27 49.76132 -1.77394 19271 ft 336 kts 348°
2026-05-09 17:28 49.78430 -1.78076 18880 ft 336 kts 348°
2026-05-09 17:28 49.80730 -1.78760 18492 ft 336 kts 348°
2026-05-09 17:28 49.83032 -1.79442 18077 ft 337 kts 348°
2026-05-09 17:28 49.85327 -1.80123 17676 ft 335 kts 348°
2026-05-09 17:29 49.87613 -1.80803 17294 ft 334 kts 348°
2026-05-09 17:29 49.89890 -1.81480 16918 ft 333 kts 348°
2026-05-09 17:29 49.92158 -1.82158 16539 ft 332 kts 348°
2026-05-09 17:29 49.94423 -1.82833 16160 ft 331 kts 348°
2026-05-09 17:30 49.96684 -1.83508 15788 ft 330 kts 348°
2026-05-09 17:30 49.98935 -1.84172 15419 ft 329 kts 350°
2026-05-09 17:30 50.01220 -1.84350 15049 ft 329 kts
2026-05-09 17:30 50.03494 -1.84036 14678 ft 328 kts
2026-05-09 17:31 50.05764 -1.83723 14302 ft 327 kts
2026-05-09 17:31 50.08032 -1.83418 13934 ft 327 kts
2026-05-09 17:32 50.16923 -1.81296 12403 ft 320 kts 17°
2026-05-09 17:32 50.19059 -1.80330 12021 ft 318 kts 17°
2026-05-09 17:32 50.21180 -1.79377 11643 ft 316 kts 16°
2026-05-09 17:33 50.23289 -1.78434 11263 ft 314 kts 16°
2026-05-09 17:33 50.25367 -1.77501 10875 ft 305 kts 16°
2026-05-09 17:33 50.27361 -1.76603 10514 ft 301 kts 16°
2026-05-09 17:33 50.29364 -1.75701 10120 ft 297 kts 16°
2026-05-09 17:34 50.31327 -1.74815 9740 ft 292 kts 16°
2026-05-09 17:35 50.42712 -1.69657 7529 ft 270 kts 18°
2026-05-09 17:35 50.44450 -1.68875 7397 ft 249 kts 18°
2026-05-09 17:36 50.46050 -1.68153 7288 ft 229 kts 18°
2026-05-09 17:36 50.47531 -1.67480 7053 ft 217 kts 18°
2026-05-09 17:36 50.48973 -1.66823 6646 ft 213 kts 18°
2026-05-09 17:36 50.50367 -1.66075 6405 ft 211 kts 26°
2026-05-09 17:37 50.51710 -1.65128 6143 ft 211 kts 26°
2026-05-09 17:37 50.53045 -1.64198 5931 ft 210 kts 26°
2026-05-09 17:37 50.54380 -1.63274 5739 ft 209 kts 26°
2026-05-09 17:37 50.55705 -1.62358 5567 ft 208 kts 26°
2026-05-09 17:38 50.57028 -1.61444 5395 ft 207 kts 26°
2026-05-09 17:38 50.58342 -1.60535 5214 ft 206 kts 26°
2026-05-09 17:38 50.59649 -1.59629 5045 ft 205 kts 26°
2026-05-09 17:39 50.62249 -1.57820 4772 ft 204 kts 27°
2026-05-09 17:39 50.63549 -1.56917 4646 ft 204 kts 27°
2026-05-09 17:39 50.64850 -1.56013 4503 ft 205 kts 26°
2026-05-09 17:39 50.66153 -1.55105 4375 ft 205 kts 26°
2026-05-09 17:40 50.67508 -1.54387 4244 ft 206 kts 18°
2026-05-09 17:40 50.68887 -1.53789 4120 ft 206 kts 18°
2026-05-09 17:40 50.70266 -1.53187 3992 ft 206 kts 18°
2026-05-09 17:40 50.71646 -1.52582 3866 ft 206 kts 19°
2026-05-09 17:41 50.73025 -1.51979 3741 ft 205 kts 18°
2026-05-09 17:41 50.74400 -1.51380 3612 ft 205 kts 19°
2026-05-09 17:41 50.75780 -1.50778 3489 ft 206 kts 19°
2026-05-09 17:41 50.77139 -1.50184 3364 ft 205 kts 18°
2026-05-09 17:42 50.78472 -1.49423 3235 ft 203 kts 31°
2026-05-09 17:42 50.79706 -1.48336 3108 ft 202 kts 31°
2026-05-09 17:42 50.80923 -1.47275 2867 ft 200 kts 31°
2026-05-09 17:42 50.82150 -1.46205 2510 ft 202 kts 31°
2026-05-09 17:43 50.83376 -1.45135 2141 ft 200 kts 32°
2026-05-09 17:43 50.84572 -1.44094 1945 ft 189 kts 32°
2026-05-09 17:43 50.85674 -1.43137 1821 ft 174 kts 32°
2026-05-09 17:43 50.86686 -1.42258 1711 ft 157 kts 32°
2026-05-09 17:44 50.87602 -1.41460 1538 ft 146 kts 31°
2026-05-09 17:44 50.88469 -1.40700 1343 ft 138 kts 33°
2026-05-09 17:44 50.89290 -1.39980 1157 ft 132 kts 33°
2026-05-09 17:44 50.90098 -1.39270 982 ft 133 kts 31°
2026-05-09 17:45 50.90910 -1.38556 798 ft 134 kts 31°
2026-05-09 17:45 50.91730 -1.37837 628 ft 135 kts 29°
2026-05-09 17:45 50.92560 -1.37132 472 ft 136 kts 29°
2026-05-09 17:45 50.93442 -1.36576 318 ft 136 kts 23°
2026-05-09 17:46 50.94324 -1.36078 93 ft 135 kts 24°
2026-05-09 17:46 50.95121 -1.35624 40 ft 89 kts 19°
2026-05-09 17:46 50.95465 -1.35435 42 ft 36 kts 19°
2026-05-09 17:46 50.95678 -1.35316 43 ft 29 kts 19°
2026-05-09 17:47 50.95831 -1.35248 43 ft 12 kts 350°
2026-05-09 17:47 50.95886 -1.35216 42 ft 7 kts 110°
2026-05-09 17:47 50.95843 -1.35225 40 ft 8 kts 200°
2026-05-09 17:47 50.95776 -1.35264 43 ft 12 kts 199°
2026-05-09 17:48 50.95675 -1.35319 43 ft 19 kts 199°
2026-05-09 17:48 50.95523 -1.35402 41 ft 28 kts 199°
2026-05-09 17:48 50.95339 -1.35503 39 ft 28 kts 200°
2026-05-09 17:48 50.95180 -1.35594 40 ft 23 kts 199°
2026-05-09 17:49 50.95033 -1.35676 40 ft 15 kts 199°
2026-05-09 17:49 50.95029 -1.35763 40 ft 10 kts 290°
2026-05-09 17:49 50.95056 -1.35888 39 ft 13 kts 289°
2026-05-09 17:49 50.95020 -1.35942 39 ft 9 kts 192°
2026-05-09 17:50 50.94959 -1.35974 39 ft 10 kts 200°
2026-05-09 17:50 50.94901 -1.36079 39 ft 4 kts 301°
2026-05-09 17:50 50.94927 -1.36074 39 ft 4 kts 18°
2026-05-09 17:51 50.94953 -1.36060 39 ft 3 kts 19°
2026-05-09 17:51 50.94959 -1.36057 39 ft 0 kts 19°